Date,TemperatureHighF,TemperatureAvgF,TemperatureLowF,DewpointHighF,DewpointAvgF,DewpointLowF,HumidityHigh,HumidityAvg,HumidityLow,PressureMaxIn,PressureMinIn,WindSpeedMaxMPH,WindSpeedAvgMPH,GustSpeedMaxMPH,PrecipitationSumIn
2013-1-1,13.0,-0.4,-7.0,1.0,-11.5,-18.0,59,59,59,30.26,30.17,0,-999,0,0.00
2013-1-2,20.0,16.3,9.0,12.0,7.6,1.0,70,68,64,30.05,29.99,0,-999,0,0.00
2013-1-3,26.0,17.7,6.0,16.0,8.4,-4.0,78,67,54,30.23,30.05,0,-999,0,0.00
2013-1-4,32.0,17.4,7.0,16.0,6.7,-3.0,77,63,51,30.17,30.02,0,-999,0,0.00
2013-1-5,36.0,22.5,7.0,24.0,14.3,1.0,83,71,58,30.14,29.81,0,-999,0,0.00
2013-1-6,27.0,20.1,10.0,15.0,10.6,1.0,75,66,55,30.20,29.90,0,-999,0,0.00
2013-1-7,39.0,25.8,15.0,24.0,17.0,8.0,86,70,52,30.14,29.90,0,-999,0,0.00
2013-1-8,40.0,27.4,13.0,30.0,20.9,9.0,88,77,60,29.99,29.78,0,-999,0,0.00
2013-1-9,38.0,30.5,21.0,27.0,21.2,15.0,86,69,49,30.41,29.87,0,-999,0,0.00
2013-1-10,43.0,32.3,17.0,32.0,22.7,11.0,84,69,43,30.41,29.75,0,-999,0,0.00
2013-1-11,44.0,39.5,36.0,43.0,36.8,32.0,99,90,82,29.75,29.39,0,-999,0,0.00
2013-1-12,47.0,28.1,15.0,43.0,17.8,2.0,99,65,51,30.02,29.39,0,-999,0,0.00
2013-1-13,17.0,11.7,8.0,3.0,-0.8,-4.0,57,56,51,30.08,29.96,0,-999,0,0.00
2013-1-16,41.0,31.4,22.0,31.0,22.2,7.0,76,69,52,30.11,29.69,0,-999,0,0.00
2013-1-17,25.0,17.1,10.0,9.0,2.2,-5.0,67,52,42,30.38,30.11,0,-999,0,0.00
2013-1-18,47.0,31.9,17.0,31.0,21.5,7.0,77,65,51,30.32,29.72,0,-999,0,0.00
2013-1-19,48.0,32.4,8.0,34.0,21.4,-4.0,82,65,42,30.08,29.59,0,-999,0,0.00
2013-1-20,15.0,9.0,5.0,1.0,-5.5,-10.0,58,52,44,30.35,30.08,0,-999,0,0.00
2013-1-21,8.0,-0.1,-5.0,-9.0,-16.8,-21.0,44,44,44,30.29,30.17,0,-999,0,0.00
2013-1-22,9.0,-0.6,-10.0,-8.0,-17.1,-26.0,44,44,44,30.38,30.23,0,-999,0,0.00
2013-1-23,22.0,12.0,-2.0,9.0,-2.7,-14.0,64,51,44,30.53,30.08,0,-999,0,0.00
2013-1-24,15.0,6.2,-3.0,1.0,-7.8,-15.0,55,51,45,30.68,30.26,0,-999,0,0.00
2013-1-25,25.0,15.7,8.0,10.0,3.9,-5.0,71,59,46,30.26,29.96,0,-999,0,0.00
2013-1-26,26.0,15.1,0.0,10.0,1.2,-12.0,58,53,47,30.38,30.20,0,-999,0,0.00
2013-1-27,33.0,30.2,25.0,30.0,20.3,10.0,87,67,51,30.20,29.75,0,-999,0,0.00
2013-1-28,38.0,34.6,33.0,35.0,30.5,29.0,100,85,75,29.90,29.59,0,-999,0,0.00
2013-1-29,39.0,36.4,34.0,39.0,36.3,33.0,100,100,97,29.59,29.41,0,-999,0,0.00
2013-1-30,34.0,24.8,15.0,34.0,20.0,6.0,100,82,66,29.63,29.41,0,-999,0,0.00
2013-1-31,18.0,8.8,-2.0,6.0,-3.3,-14.0,66,57,49,30.17,29.63,0,-999,0,0.00
2013-2-1,10.0,1.0,-10.0,-3.0,-11.5,-22.0,55,55,55,30.29,30.05,0,-999,0,0.00
2013-2-2,18.0,10.2,5.0,3.0,-3.0,-7.0,57,54,47,30.11,29.93,0,-999,0,0.00
2013-2-3,22.0,14.6,10.0,8.0,2.1,-3.0,71,58,46,30.02,29.90,0,-999,0,0.00
2013-2-4,22.0,13.8,7.0,7.0,2.9,-5.0,72,62,45,29.99,29.84,0,-999,0,0.00
2013-2-5,34.0,20.7,6.0,25.0,12.4,-3.0,79,70,57,30.05,29.66,0,-999,0,0.00
2013-2-6,36.0,18.3,-1.0,26.0,10.3,-6.0,78,71,55,30.14,29.93,0,-999,0,0.00
2013-2-7,34.0,30.0,26.0,28.0,24.8,22.0,88,81,76,30.17,29.93,0,-999,0,0.00
2013-2-8,32.0,22.3,6.0,22.0,13.2,-2.0,84,68,51,30.35,30.17,0,-999,0,0.00
2013-2-9,36.0,27.0,8.0,23.0,19.1,0.0,79,72,59,30.32,29.96,0,-999,0,0.00
2013-2-10,38.0,34.4,29.0,37.0,30.4,23.0,96,85,77,29.96,29.21,0,-999,0,0.00
2013-2-11,35.0,30.2,23.0,33.0,23.2,14.0,94,76,60,29.99,29.21,0,-999,0,0.00
2013-2-12,36.0,25.7,18.0,23.0,17.0,11.0,84,70,55,30.02,29.78,0,-999,0,0.00
2013-2-13,44.0,33.6,21.0,30.0,24.8,18.0,88,71,51,29.78,29.51,0,-999,0,0.00
2013-2-14,40.0,32.8,18.0,32.0,24.2,6.0,89,71,54,30.08,29.48,0,-999,0,0.00
2013-2-15,24.0,15.9,9.0,8.0,3.4,-3.0,67,57,46,30.23,30.08,0,-999,0,0.00
2013-2-16,25.0,12.2,4.0,9.0,-0.8,-8.0,60,55,45,30.20,30.11,0,-999,0,0.00
2013-2-17,34.0,17.4,0.0,19.0,5.8,-11.0,71,60,52,30.14,29.72,0,-999,0,0.00
2013-2-18,46.0,30.1,17.0,35.0,22.2,10.0,84,72,63,29.72,29.44,0,-999,0,0.00
2013-2-19,19.0,11.6,5.0,10.0,0.3,-12.0,82,61,44,30.26,29.63,0,-999,0,0.00
2013-2-20,23.0,11.6,-1.0,6.0,-3.1,-16.0,58,51,46,30.38,30.26,0,-999,0,0.00
2013-2-21,28.0,17.1,6.0,18.0,4.6,-6.0,77,58,49,30.44,30.02,0,-999,0,0.00
2013-2-22,39.0,27.6,23.0,27.0,20.8,17.0,90,76,59,30.02,29.75,0,-999,0,0.00
2013-2-23,40.0,27.4,21.0,25.0,19.6,13.0,82,73,51,29.93,29.78,0,-999,0,0.00
2013-2-24,37.0,21.5,5.0,27.0,15.0,2.0,87,76,59,30.08,29.93,0,-999,0,0.00
2013-2-25,47.0,31.6,23.0,30.0,22.2,17.0,79,69,48,30.08,29.99,0,-999,0,0.00
2013-2-26,41.0,32.4,23.0,25.0,22.1,17.0,80,67,51,30.02,29.72,0,-999,0,0.00
2013-2-27,40.0,34.5,31.0,36.0,28.1,22.0,97,78,63,29.84,29.69,0,-999,0,0.00
2013-2-28,37.0,32.3,27.0,32.0,25.5,18.0,87,76,67,30.14,29.96,0,-999,0,0.00
2013-3-1,35.0,24.9,12.0,19.0,14.0,5.0,76,63,50,30.26,30.14,0,-999,0,0.00
2013-3-2,31.0,19.9,8.0,12.0,7.7,1.0,76,60,42,30.29,30.14,0,-999,0,0.00
2013-3-3,36.0,19.2,6.0,16.0,6.5,-3.0,65,58,42,30.17,30.02,0,-999,0,0.00
2013-3-4,31.0,30.0,29.0,19.0,16.7,15.0,62,58,52,30.02,29.93,0,-999,0,0.00
2013-3-5,36.0,28.3,24.0,25.0,21.0,18.0,80,74,62,30.17,29.93,0,-999,0,0.00
2013-3-6,34.0,23.2,9.0,19.0,14.2,2.0,80,69,51,30.32,30.17,0,-999,0,0.00
2013-3-7,40.0,20.9,2.0,20.0,9.3,-5.0,71,61,45,30.38,30.29,0,-999,0,0.00
2013-3-8,44.0,29.8,12.0,28.0,19.3,6.0,77,65,51,30.38,30.17,0,-999,0,0.00
2013-3-9,40.0,36.9,32.0,36.0,31.1,23.0,92,80,70,30.17,29.69,0,-999,0,0.00
2013-3-10,38.0,35.9,33.0,38.0,35.2,33.0,100,97,92,29.84,29.66,0,-999,0,0.00
2013-3-11,41.0,32.6,29.0,38.0,32.0,29.0,100,98,88,29.75,29.59,0,-999,0,0.00
2013-3-12,39.0,28.5,21.0,32.0,24.5,19.0,100,85,67,30.08,29.75,0,-999,0,0.00
2013-3-13,33.0,23.3,14.0,20.0,15.3,11.0,91,73,47,30.32,30.08,0,-999,0,0.00
2013-3-14,46.0,30.6,19.0,36.0,25.3,15.0,94,81,58,30.29,29.99,0,-999,0,0.00
2013-3-15,40.0,33.5,26.0,39.0,32.0,25.0,100,94,80,29.99,29.75,0,-999,0,0.00
2013-3-16,36.0,28.9,20.0,34.0,26.9,18.0,100,93,72,30.14,29.78,0,-999,0,0.00
2013-3-17,33.0,22.9,12.0,24.0,15.7,8.0,90,74,58,30.23,29.93,0,-999,0,0.00
2013-3-18,42.0,25.4,15.0,37.0,22.2,13.0,100,87,75,29.93,29.54,0,-999,0,0.00
2013-3-19,27.0,17.3,9.0,23.0,12.8,3.0,91,82,64,30.08,29.72,0,-999,0,0.00
2013-3-20,29.0,14.0,4.0,8.0,0.8,-7.0,68,56,40,30.14,30.02,0,-999,0,0.00
2013-3-21,29.0,15.8,3.0,9.0,0.7,-9.0,59,51,41,30.08,29.96,0,-999,0,0.00
2013-3-22,38.0,22.2,6.0,17.0,6.8,-6.0,66,52,39,30.05,29.96,0,-999,0,0.00
2013-3-23,48.0,31.9,16.0,23.0,15.8,8.0,72,52,37,30.11,29.99,0,-999,0,0.00
2013-3-24,40.0,32.7,29.0,25.0,18.7,16.0,60,56,50,30.05,29.87,0,-999,0,0.00
2013-3-26,47.0,37.6,20.0,24.0,19.9,12.0,72,50,37,30.26,30.20,0,-999,0,0.00
2013-3-27,52.0,36.8,26.0,26.0,19.0,13.0,63,49,32,30.32,30.26,0,-999,0,0.00
2013-3-28,47.0,33.7,20.0,26.0,18.0,12.0,71,53,38,30.32,30.23,0,-999,0,0.00
2013-3-29,54.0,36.6,20.0,30.0,21.6,13.0,76,56,38,30.32,30.11,0,-999,0,0.00
2013-3-30,52.0,41.8,36.0,39.0,30.6,-99.9,87,68,54,30.11,29.78,0,-999,0,0.00
2013-3-31,37.0,34.7,32.0,34.0,31.7,29.0,91,89,87,29.78,29.72,0,-999,0,0.00
2013-4-2,37.0,31.4,22.0,15.0,13.1,9.0,60,47,39,30.32,30.23,0,-999,0,0.00
2013-4-3,46.0,32.6,17.0,22.0,16.9,9.0,75,54,38,30.44,30.17,0,-999,0,0.00
2013-4-4,52.0,41.8,33.0,33.0,23.9,18.0,60,49,38,30.17,29.96,0,-999,0,0.00
2013-4-5,52.0,38.2,25.0,30.0,21.8,14.0,75,53,34,30.20,29.99,0,-999,0,0.00
2013-4-6,61.0,45.6,37.0,46.0,32.2,20.0,90,61,42,29.99,29.41,0,-999,0,0.00
2013-4-7,53.0,43.9,37.0,35.0,31.7,29.0,77,63,47,29.93,29.63,0,-999,0,0.00
2013-4-8,57.0,45.6,39.0,41.0,36.1,33.0,86,70,55,29.96,29.63,0,-999,0,0.00
2013-4-9,41.0,38.7,37.0,41.0,36.9,33.0,100,93,75,30.08,29.78,0,-999,0,0.00
2013-4-10,37.0,34.3,32.0,37.0,34.3,32.0,100,100,99,30.11,29.84,0,-999,0,0.00
2013-4-11,38.0,35.0,32.0,38.0,34.9,32.0,100,100,98,29.84,29.57,0,-999,0,0.00
2013-4-12,43.0,34.8,31.0,40.0,33.5,31.0,100,95,87,29.78,29.54,0,-999,0,0.00
2013-4-13,41.0,34.7,27.0,32.0,28.7,25.0,98,80,56,30.02,29.78,0,-999,0,0.00
2013-4-14,38.0,33.5,27.0,38.0,31.3,25.0,100,92,77,30.02,29.54,0,-999,0,0.00
2013-4-15,48.0,40.7,34.0,41.0,34.3,27.0,100,80,50,29.96,29.57,0,-999,0,0.00
2013-4-16,50.0,39.9,28.0,31.0,27.8,24.0,88,63,46,30.29,29.96,0,-999,0,0.00
2013-4-17,41.0,37.2,31.0,40.0,32.4,24.0,100,84,62,30.29,29.78,0,-999,0,0.00
2013-4-18,42.0,38.5,34.0,42.0,38.5,34.0,100,100,100,29.78,29.29,0,-999,0,0.00
2013-4-19,41.0,35.0,28.0,34.0,28.0,19.0,100,78,47,29.90,29.26,0,-999,0,0.00
2013-4-20,58.0,35.4,20.0,35.0,19.3,16.0,91,55,34,30.29,29.90,0,-999,0,0.00
2013-4-21,56.0,42.9,32.0,43.0,30.3,17.0,83,62,48,30.35,30.08,0,-999,0,0.00
2013-4-22,50.0,46.9,42.0,50.0,44.3,41.0,100,91,82,30.14,29.93,0,-999,0,0.00
2013-4-23,45.0,38.2,28.0,42.0,32.6,22.0,100,82,52,30.02,29.93,0,-999,0,0.00
2013-4-24,55.0,41.2,24.0,37.0,27.0,20.0,86,61,36,30.02,29.84,0,-999,0,0.00
2013-4-25,52.0,44.3,37.0,34.0,29.4,23.0,78,57,41,30.20,29.93,0,-999,0,0.00
2013-4-26,74.0,57.4,38.0,44.0,35.7,24.0,62,45,31,30.17,29.99,0,-999,0,0.00
2013-4-27,75.0,61.5,46.0,51.0,44.7,39.0,82,56,39,30.14,29.93,0,-999,0,0.00
2013-4-28,75.0,62.2,42.0,49.0,42.8,36.0,78,51,34,29.93,29.66,0,-999,0,0.00
2013-4-29,80.0,67.5,55.0,56.0,50.3,43.0,79,55,42,29.75,29.57,0,-999,0,0.00
2013-4-30,84.0,70.2,53.0,60.0,51.6,43.0,98,55,31,29.93,29.51,0,-999,0,0.00
2013-5-1,60.0,50.6,39.0,55.0,42.8,30.0,100,77,49,30.35,29.87,0,-999,0,0.00
2013-5-2,39.0,35.4,32.0,37.0,33.4,30.0,100,93,71,30.41,30.32,0,-999,0,0.00
2013-5-3,39.0,35.0,32.0,39.0,35.0,32.0,100,100,99,30.32,30.02,0,-999,0,0.00
2013-5-4,69.0,49.8,36.0,62.0,45.1,36.0,100,86,58,30.08,29.99,0,-999,0,0.00
2013-5-5,73.0,56.8,39.0,50.0,43.6,36.0,88,63,41,30.08,29.96,0,-999,0,0.00
2013-5-6,50.0,46.8,45.0,43.0,41.5,40.0,87,82,74,30.05,29.99,0,-999,0,0.00
2013-5-8,84.0,74.5,47.0,51.0,46.1,38.0,73,38,25,29.99,29.87,0,-999,0,0.00
2013-5-9,64.0,58.7,50.0,60.0,54.0,48.0,100,85,57,29.93,29.87,0,-999,0,0.00
2013-5-10,55.0,45.8,42.0,49.0,43.3,40.0,100,92,62,30.02,29.87,0,-999,0,0.00
2013-5-11,68.0,50.4,41.0,46.0,31.6,20.0,89,51,30,30.08,29.78,0,-999,0,0.00
2013-5-12,71.0,47.6,35.0,33.0,21.5,17.0,51,36,24,30.17,30.05,0,-999,0,0.00
2013-5-13,72.0,53.5,29.0,39.0,30.3,19.0,69,43,28,30.11,29.72,0,-999,0,0.00
2013-5-14,93.0,73.8,52.0,56.0,47.2,37.0,69,41,27,29.72,29.36,0,-999,0,0.00
2013-5-15,92.0,69.7,55.0,51.0,41.0,36.0,59,36,21,29.84,29.54,0,-999,0,0.00
2013-5-16,55.0,52.2,50.0,42.0,41.6,41.0,73,67,60,29.81,29.78,0,-999,0,0.00
2013-5-19,77.0,68.0,63.0,66.0,63.4,61.0,100,86,60,29.66,29.51,0,-999,0,0.00
2013-5-20,80.0,69.8,61.0,71.0,61.3,56.0,100,78,47,29.66,29.44,0,-999,0,0.00
2013-5-21,76.0,65.8,60.0,64.0,57.0,51.0,94,75,54,29.63,29.48,0,-999,0,0.00
2013-5-22,63.0,59.1,52.0,59.0,55.5,52.0,100,88,78,29.84,29.59,0,-999,0,0.00
2013-5-23,64.0,54.3,46.0,52.0,46.9,37.0,100,80,37,30.20,29.84,0,-999,0,0.00
2013-5-27,55.0,54.1,53.0,55.0,54.1,53.0,100,100,100,29.84,29.81,0,-999,0,0.00
2013-5-28,68.0,59.2,52.0,65.0,57.5,52.0,100,94,81,29.81,29.63,0,-999,0,0.00
2013-5-29,86.0,68.4,61.0,69.0,62.0,59.0,94,81,55,29.78,29.66,0,-999,0,0.00
2013-5-30,82.0,71.6,63.0,69.0,63.5,60.0,96,77,55,29.75,29.51,0,-999,0,0.00
2013-5-31,91.0,72.5,63.0,67.0,60.1,49.0,90,67,40,29.66,29.51,0,-999,0,0.00
2013-6-1,86.0,66.3,56.0,62.0,54.8,47.0,87,68,45,29.78,29.54,0,-999,0,0.00
2013-6-2,68.0,56.4,47.0,48.0,40.7,37.0,80,57,41,30.02,29.78,0,-999,0,0.00
2013-6-3,90.0,63.1,42.0,56.0,43.9,38.0,88,53,28,30.05,29.93,0,-999,0,0.00
2013-6-4,58.0,56.9,55.0,56.0,51.8,46.0,100,84,64,30.11,29.99,0,-999,0,0.00
2013-6-5,60.0,56.5,52.0,60.0,56.4,52.0,100,100,97,30.08,29.87,0,-999,0,0.00
2013-6-6,62.0,56.6,54.0,58.0,55.0,54.0,100,94,81,29.96,29.87,0,-999,0,0.00
2013-6-7,75.0,61.7,53.0,57.0,52.1,48.0,100,75,42,29.99,29.84,0,-999,0,0.00
2013-6-8,80.0,65.2,53.0,58.0,52.9,48.0,90,66,43,29.90,29.84,0,-999,0,0.00
2013-6-9,70.0,63.3,59.0,63.0,55.2,48.0,89,75,56,29.90,29.72,0,-999,0,0.00
2013-6-10,86.0,68.5,59.0,69.0,58.8,55.0,98,73,50,29.81,29.72,0,-999,0,0.00
2013-6-11,92.0,61.0,56.0,65.0,55.4,53.0,93,84,39,29.87,29.81,0,-999,0,0.00
2013-6-12,81.0,70.0,63.0,74.0,66.2,62.0,100,89,59,29.84,29.63,0,-999,0,0.00
2013-6-13,79.0,67.7,58.0,63.0,55.9,52.0,100,71,41,30.02,29.75,0,-999,0,0.00
2013-6-14,81.0,70.8,56.0,58.0,54.1,50.0,81,57,44,30.11,29.87,0,-999,0,0.00
2013-6-15,85.0,71.6,63.0,69.0,62.1,55.0,87,73,55,29.96,29.72,0,-999,0,0.00
2013-6-16,84.0,72.7,60.0,64.0,54.6,47.0,93,59,30,29.87,29.78,0,-999,0,0.00
2013-6-17,84.0,72.5,59.0,58.0,52.4,48.0,80,53,30,29.90,29.81,0,-999,0,0.00
2013-6-18,79.0,69.7,62.0,56.0,50.6,43.0,75,53,36,30.05,29.90,0,-999,0,0.00
2013-6-19,84.0,70.1,53.0,60.0,52.8,44.0,73,56,43,30.08,29.96,0,-999,0,0.00
2013-6-20,89.0,73.3,63.0,62.0,57.0,54.0,74,59,38,30.02,29.93,0,-999,0,0.00
2013-6-22,88.0,78.3,65.0,72.0,69.6,64.0,100,77,59,29.90,29.78,0,-999,0,0.00
2013-6-23,86.0,75.0,64.0,70.0,65.7,62.0,100,76,46,29.90,29.69,0,-999,0,0.00
2013-6-24,83.0,73.2,68.0,70.0,65.8,63.0,92,78,64,29.87,29.78,0,-999,0,0.00
2013-6-25,89.0,75.2,65.0,73.0,67.6,63.0,94,79,58,29.84,29.66,0,-999,0,0.00
2013-6-26,89.0,78.2,69.0,73.0,69.2,65.0,96,76,53,29.72,29.59,0,-999,0,0.00
2013-6-27,89.0,76.9,66.0,68.0,60.7,51.0,93,62,32,29.75,29.66,0,-999,0,0.00
2013-6-28,80.0,70.1,62.0,68.0,58.5,52.0,100,68,41,29.72,29.59,0,-999,0,0.00
2013-6-29,75.0,66.5,62.0,66.0,60.9,52.0,100,83,62,29.87,29.63,0,-999,0,0.00
2013-6-30,80.0,68.1,53.0,53.0,48.8,45.0,80,54,29,30.05,29.87,0,-999,0,0.00
2013-7-1,84.0,69.6,53.0,53.0,50.9,49.0,86,55,31,30.11,30.02,0,-999,0,0.00
2013-7-2,85.0,72.4,58.0,58.0,53.7,50.0,79,54,37,30.08,29.99,0,-999,0,0.00
2013-7-3,83.0,69.8,54.0,55.0,51.6,47.0,79,55,32,30.05,29.93,0,-999,0,0.00
2013-7-4,87.0,74.6,60.0,64.0,58.1,54.0,81,58,41,29.99,29.84,0,-999,0,0.00
2013-7-5,90.0,78.2,65.0,61.0,58.1,56.0,75,53,35,29.93,29.84,0,-999,0,0.00
2013-7-6,92.0,79.3,69.0,64.0,61.4,59.0,72,56,39,29.90,29.81,0,-999,0,0.00
2013-7-7,94.0,81.7,71.0,69.0,66.1,61.0,75,60,43,29.87,29.78,0,-999,0,0.00
2013-7-8,89.0,80.6,72.0,72.0,68.1,64.0,80,66,51,29.93,29.78,0,-999,0,0.00
2013-7-9,92.0,77.7,68.0,75.0,67.5,64.0,90,73,47,29.93,29.72,0,-999,0,0.00
2013-7-10,82.0,74.2,62.0,67.0,55.8,50.0,80,55,36,29.99,29.81,0,-999,0,0.00
2013-7-11,86.0,70.8,57.0,59.0,54.9,52.0,84,61,32,30.08,29.96,0,-999,0,0.00
2013-7-12,86.0,74.6,61.0,60.0,57.4,55.0,86,58,39,30.08,29.96,0,-999,0,0.00
2013-7-13,84.0,73.9,66.0,62.0,58.3,54.0,77,59,43,30.08,29.99,0,-999,0,0.00
2013-7-14,92.0,80.4,62.0,66.0,61.2,56.0,83,54,37,30.17,30.08,0,-999,0,0.00
2013-7-15,95.0,78.6,65.0,71.0,64.9,60.0,84,65,39,30.20,30.11,0,-999,0,0.00
2013-7-16,93.0,83.4,74.0,72.0,69.5,67.0,78,65,47,30.20,30.14,0,-999,0,0.00
2013-7-17,93.0,82.1,75.0,72.0,68.1,65.0,82,65,42,30.23,30.08,0,-999,0,0.00
2013-8-2,68.0,60.8,58.0,53.0,51.2,50.0,77,71,59,29.96,29.90,0,-999,0,0.00
2013-8-3,79.0,68.3,53.0,55.0,49.6,45.0,90,55,34,30.11,29.96,0,-999,0,0.00
2013-8-4,79.0,64.6,49.0,57.0,50.7,44.0,86,63,40,30.20,30.02,0,-999,0,0.00
2013-8-5,75.0,64.7,55.0,64.0,58.4,49.0,91,80,69,30.02,29.75,0,-999,0,0.00
2013-8-6,86.0,75.2,65.0,68.0,64.3,59.0,93,71,47,29.78,29.63,0,-999,0,0.00
2013-8-7,78.0,67.2,58.0,62.0,57.8,51.0,93,74,46,29.96,29.66,0,-999,0,0.00
2013-8-8,81.0,65.5,50.0,59.0,52.7,47.0,91,67,36,30.02,29.93,0,-999,0,0.00
2013-8-9,80.0,69.7,57.0,61.0,53.9,49.0,88,61,36,30.05,29.93,0,-999,0,0.00
2013-8-10,80.0,67.2,55.0,55.0,51.5,49.0,86,60,38,30.11,30.05,0,-999,0,0.00
2013-8-11,78.0,66.1,58.0,65.0,59.5,51.0,91,80,63,30.08,29.96,0,-999,0,0.00
2013-8-12,80.0,67.8,61.0,66.0,60.5,51.0,94,79,46,29.99,29.90,0,-999,0,0.00
2013-8-13,76.0,62.7,51.0,52.0,48.0,45.0,87,62,35,30.14,29.99,0,-999,0,0.00
2013-8-14,79.0,64.4,50.0,56.0,47.6,-99.9,87,62,35,30.20,30.05,0,-999,0,0.00
2013-8-15,82.0,66.0,57.0,59.0,51.1,-99.9,87,66,34,30.11,30.02,0,-999,0,0.00
2013-8-16,83.0,66.4,51.0,59.0,51.6,47.0,87,62,36,30.14,30.08,0,-999,0,0.00
2013-8-17,85.0,68.0,52.0,60.0,52.7,47.0,84,62,32,30.20,30.08,0,-999,0,0.00
2013-8-18,84.0,68.2,53.0,60.0,54.4,49.0,87,64,41,30.14,29.99,0,-999,0,0.00
2013-8-19,86.0,71.4,57.0,64.0,55.2,-99.9,84,67,45,30.02,29.90,0,-999,0,0.00
2013-8-20,88.0,77.0,67.0,70.0,65.0,60.0,82,67,53,29.96,29.84,0,-999,0,0.00
2013-8-21,91.0,79.0,71.0,71.0,67.4,63.0,84,69,52,29.93,29.81,0,-999,0,0.00
2013-8-22,84.0,75.9,64.0,72.0,63.0,58.0,100,67,44,30.05,29.99,0,-999,0,0.00
2013-8-23,85.0,71.2,58.0,68.0,60.9,56.0,93,72,48,30.11,30.02,0,-999,0,0.00
2013-8-24,86.0,73.7,62.0,70.0,61.4,52.0,87,66,53,30.14,29.99,0,-999,0,0.00
2013-8-25,92.0,82.6,72.0,72.0,69.3,66.0,81,65,51,30.05,29.96,0,-999,0,0.00
2013-8-26,94.0,82.8,73.0,75.0,70.0,63.0,79,66,53,29.99,29.84,0,-999,0,0.00
2013-8-27,94.0,82.5,76.0,73.0,69.7,67.0,77,67,49,29.84,29.72,0,-999,0,0.00
2013-8-28,89.0,83.7,73.0,72.0,69.5,66.0,80,63,54,29.96,29.90,0,-999,0,0.00
2013-8-29,92.0,80.1,69.0,74.0,69.8,66.0,91,72,56,29.99,29.81,0,-999,0,0.00
2013-8-30,89.0,80.6,72.0,75.0,68.5,61.0,91,68,46,29.81,29.72,0,-999,0,0.00
2013-8-31,86.0,74.3,65.0,67.0,62.8,59.0,83,69,50,29.78,29.63,0,-999,0,0.00
2013-9-1,82.0,74.3,66.0,68.0,61.2,55.0,90,66,44,29.81,29.59,0,-999,0,0.00
2013-9-2,71.0,61.5,51.0,56.0,50.1,45.0,83,67,46,29.99,29.81,0,-999,0,0.00
2013-9-3,79.0,59.6,43.0,56.0,47.9,38.0,87,68,41,30.08,29.96,0,-999,0,0.00
2013-9-4,88.0,69.4,50.0,65.0,57.0,44.0,89,67,45,30.08,29.99,0,-999,0,0.00
2013-9-5,80.0,69.1,60.0,63.0,59.0,54.0,82,71,52,30.20,30.08,0,-999,0,0.00
2013-9-6,88.0,74.0,62.0,66.0,60.2,55.0,80,63,44,30.11,29.84,0,-999,0,0.00
2013-9-7,93.0,80.3,69.0,71.0,64.0,58.0,71,59,43,29.87,29.78,0,-999,0,0.00
2013-9-8,83.0,72.8,67.0,63.0,59.6,54.0,76,64,45,29.99,29.84,0,-999,0,0.00
2013-9-9,92.0,77.8,68.0,74.0,66.1,61.0,83,69,47,29.87,29.59,0,-999,0,0.00
2013-9-10,91.0,79.3,69.0,67.0,63.2,60.0,78,59,40,29.90,29.78,0,-999,0,0.00
2013-9-11,86.0,74.3,61.0,65.0,59.7,50.0,87,63,37,29.99,29.90,0,-999,0,0.00
2013-9-12,74.0,63.3,51.0,54.0,47.9,40.0,82,60,35,30.17,29.93,0,-999,0,0.00
2013-9-13,68.0,54.8,41.0,46.0,40.5,35.0,84,61,36,30.23,30.08,0,-999,0,0.00
2013-9-14,77.0,58.6,40.0,50.0,42.3,34.0,84,58,33,30.11,29.84,0,-999,0,0.00
2013-9-15,69.0,60.4,54.0,54.0,51.3,46.0,87,73,55,30.23,29.84,0,-999,0,0.00
2013-9-16,66.0,55.5,45.0,47.0,41.3,39.0,80,60,38,30.38,30.23,0,-999,0,0.00
2013-9-17,69.0,54.8,43.0,55.0,46.5,38.0,86,75,52,30.29,29.96,0,-999,0,0.00
2013-9-18,64.0,62.7,61.0,60.0,57.3,55.0,87,83,82,29.96,29.87,0,-999,0,0.00
2013-9-19,87.0,76.8,69.0,71.0,67.2,63.0,88,74,56,29.72,29.59,0,-999,0,0.00
2013-9-20,69.0,63.8,56.0,65.0,54.2,48.0,89,72,53,29.84,29.69,0,-999,0,0.00
2013-9-21,65.0,54.2,44.0,50.0,44.9,39.0,94,73,46,29.93,29.84,0,-999,0,0.00
2013-9-22,69.0,54.1,39.0,51.0,44.6,36.0,91,72,49,30.02,29.87,0,-999,0,0.00
2013-9-23,72.0,59.2,48.0,52.0,47.2,42.0,86,66,45,30.02,29.90,0,-999,0,0.00
2013-9-24,73.0,58.6,47.0,53.0,47.3,43.0,87,68,43,29.96,29.84,0,-999,0,0.00
2013-9-25,71.0,56.6,42.0,52.0,46.3,38.0,88,71,48,29.99,29.87,0,-999,0,0.00
2013-9-26,77.0,62.2,49.0,59.0,51.4,44.0,89,70,49,29.99,29.87,0,-999,0,0.00
2013-9-27,82.0,68.3,55.0,60.0,52.2,44.0,74,57,43,30.02,29.84,0,-999,0,0.00
2013-9-28,77.0,63.1,48.0,61.0,51.9,44.0,93,68,49,29.93,29.69,0,-999,0,0.00
2013-9-29,71.0,55.7,42.0,54.0,46.7,41.0,99,75,43,29.99,29.84,0,-999,0,0.00
2013-9-30,72.0,62.2,53.0,51.0,46.9,44.0,72,59,42,29.87,29.63,0,-999,0,0.00
2013-10-1,52.0,48.7,46.0,41.0,39.8,39.0,76,71,65,29.96,29.87,0,-999,0,0.00
2013-10-2,76.0,57.5,39.0,51.0,42.2,35.0,88,61,33,30.08,29.84,0,-999,0,0.00
2013-10-3,68.0,61.4,55.0,64.0,57.8,43.0,100,89,49,29.90,29.75,0,-999,0,0.00
2013-10-4,67.0,61.1,58.0,65.0,60.9,58.0,100,99,94,29.93,29.81,0,-999,0,0.00
2013-10-5,73.0,62.3,49.0,70.0,60.6,45.0,100,94,75,29.78,29.66,0,-999,0,0.00
2013-10-6,60.0,49.0,39.0,47.0,43.1,39.0,100,82,50,29.72,29.63,0,-999,0,0.00
2013-10-7,64.0,51.5,42.0,49.0,43.8,38.0,99,77,44,29.99,29.72,0,-999,0,0.00
2013-10-8,75.0,55.9,40.0,52.0,43.9,38.0,96,68,36,30.05,29.90,0,-999,0,0.00
2013-10-9,72.0,59.1,48.0,49.0,44.5,42.0,81,60,44,30.08,29.99,0,-999,0,0.00
2013-10-10,71.0,55.5,42.0,52.0,45.0,39.0,89,70,45,30.08,29.93,0,-999,0,0.00
2013-10-11,75.0,62.2,47.0,57.0,49.6,43.0,91,66,43,29.93,29.72,0,-999,0,0.00
2013-10-12,68.0,58.5,40.0,54.0,42.0,32.0,74,55,37,30.17,29.72,0,-999,0,0.00
2013-10-13,60.0,44.4,37.0,41.0,34.0,30.0,87,70,36,30.38,30.17,0,-999,0,0.00
2013-10-14,62.0,48.0,32.0,43.0,35.5,27.0,84,64,40,30.41,30.02,0,-999,0,0.00
2013-10-15,63.0,52.9,49.0,54.0,45.8,41.0,90,77,60,30.02,29.66,0,-999,0,0.00
2013-10-16,55.0,48.9,36.0,48.0,42.6,33.0,89,79,64,29.90,29.72,0,-999,0,0.00
2013-10-17,59.0,43.9,31.0,44.0,35.5,29.0,93,74,44,29.90,29.72,0,-999,0,0.00
2013-10-18,54.0,45.5,33.0,43.0,35.1,27.0,87,68,40,29.90,29.75,0,-999,0,0.00
2013-10-19,52.0,39.2,32.0,40.0,32.2,26.0,86,76,57,29.84,29.66,0,-999,0,0.00
2013-10-20,51.0,45.4,37.0,43.0,38.2,30.0,87,76,65,29.78,29.59,0,-999,0,0.00
2013-10-21,40.0,37.2,28.0,34.0,25.0,18.0,84,62,42,29.93,29.75,0,-999,0,0.00
2013-10-22,47.0,34.0,22.0,30.0,24.1,17.0,83,68,49,29.99,29.90,0,-999,0,0.00
2013-10-23,46.0,36.1,26.0,31.0,24.5,21.0,83,64,39,30.02,29.93,0,-999,0,0.00
2013-10-24,46.0,37.4,29.0,24.0,21.6,19.0,70,53,39,30.26,30.02,0,-999,0,0.00
2013-10-25,54.0,47.0,28.0,32.0,29.0,22.0,79,51,38,30.29,29.75,0,-999,0,0.00
2013-10-26,53.0,46.2,38.0,34.0,28.2,24.0,70,50,39,30.02,29.72,0,-999,0,0.00
2013-10-27,58.0,41.2,27.0,34.0,27.2,20.0,80,60,37,30.02,29.75,0,-999,0,0.00
2013-10-28,47.0,40.6,34.0,28.0,24.8,21.0,67,53,44,30.38,30.02,0,-999,0,0.00
2013-10-29,53.0,41.4,34.0,34.0,27.7,21.0,72,58,49,30.38,30.08,0,-999,0,0.00
2013-10-30,54.0,48.2,43.0,51.0,40.9,34.0,90,76,70,30.08,29.66,0,-999,0,0.00
2013-10-31,54.0,49.0,43.0,53.0,46.0,36.0,100,90,77,29.66,29.29,0,-999,0,0.00
2013-11-1,50.0,44.9,41.0,40.0,37.6,33.0,89,76,55,29.66,29.32,0,-999,0,0.00
2013-11-2,30.0,28.7,28.0,24.0,23.2,23.0,81,80,78,30.11,30.08,0,-999,0,0.00
2013-11-3,53.0,38.7,25.0,34.0,27.9,21.0,86,67,45,30.20,29.99,0,-999,0,0.00
2013-11-4,53.0,45.8,36.0,44.0,36.2,30.0,92,71,53,30.11,29.90,0,-999,0,0.00
2013-11-5,46.0,40.0,33.0,44.0,38.1,31.0,100,93,78,30.23,29.81,0,-999,0,0.00
2013-11-6,43.0,37.1,30.0,40.0,32.5,21.0,100,85,44,30.17,29.81,0,-999,0,0.00
2013-11-7,43.0,33.5,25.0,32.0,26.4,22.0,89,75,60,30.20,30.14,0,-999,0,0.00
2013-11-8,46.0,36.0,22.0,34.0,26.7,20.0,93,71,48,30.20,29.63,0,-999,0,0.00
2013-11-9,49.0,44.7,36.0,39.0,31.5,22.0,72,60,46,30.08,29.63,0,-999,0,0.00
2013-11-10,46.0,40.9,35.0,28.0,25.9,23.0,63,55,45,30.32,30.05,0,-999,0,0.00
2013-11-11,43.0,30.3,20.0,31.0,18.0,6.0,91,60,51,30.65,30.02,0,-999,0,0.00
2013-11-12,29.0,19.8,13.0,11.0,7.1,4.0,67,58,45,30.77,30.53,0,-999,0,0.00
2013-11-13,45.0,30.8,18.0,28.0,17.0,9.0,70,57,44,30.53,29.93,0,-999,0,0.00
2013-11-14,50.0,39.7,31.0,32.0,25.0,17.0,67,56,43,29.93,29.75,0,-999,0,0.00
2013-11-15,53.0,39.0,25.0,37.0,29.8,20.0,83,70,54,29.84,29.72,0,-999,0,0.00
2013-11-16,56.0,47.6,42.0,54.0,41.9,32.0,96,81,64,29.72,29.23,0,-999,0,0.00
2013-11-17,47.0,43.1,36.0,43.0,36.8,25.0,89,79,63,29.69,29.23,0,-999,0,0.00
2013-11-18,37.0,31.5,20.0,25.0,18.7,13.0,76,59,46,30.26,29.72,0,-999,0,0.00
2013-11-19,19.0,18.4,18.0,14.0,12.8,12.0,80,78,75,30.29,30.26,0,-999,0,0.00
2013-11-20,40.0,36.9,36.0,33.0,29.8,25.0,83,76,54,30.02,29.96,0,-999,0,0.00
2013-11-21,43.0,38.1,30.0,37.0,32.5,23.0,87,80,71,30.35,30.02,0,-999,0,0.00
2013-11-22,33.0,25.7,18.0,24.0,15.0,8.0,81,64,43,30.50,30.35,0,-999,0,0.00
2013-11-23,24.0,16.3,10.0,12.0,1.3,-3.0,60,51,44,30.77,30.47,0,-999,0,0.00
2013-11-24,26.0,22.1,11.0,9.0,5.4,-4.0,65,48,42,30.62,30.08,0,-999,0,0.00
2013-11-25,40.0,32.8,26.0,24.0,17.7,7.0,66,54,44,30.11,29.90,0,-999,0,0.00
2013-11-26,36.0,24.9,13.0,21.0,8.1,-2.0,74,49,39,30.29,29.99,0,-999,0,0.00
2013-11-27,29.0,22.4,12.0,9.0,5.7,-3.0,59,48,42,30.32,30.08,0,-999,0,0.00
2013-11-28,33.0,26.9,21.0,13.0,9.5,4.0,53,47,42,30.50,30.05,0,-999,0,0.00
2013-11-29,34.0,25.9,11.0,15.0,11.4,0.0,67,54,44,30.56,30.29,0,-999,0,0.00
2013-12-1,40.0,32.1,23.0,25.0,21.3,17.0,77,65,52,30.14,29.90,0,-999,0,0.00
2013-12-2,43.0,31.9,20.0,32.0,24.4,14.0,88,74,58,29.90,29.59,0,-999,0,0.00
2013-12-3,37.0,35.2,34.0,34.0,33.3,31.0,100,93,86,29.72,29.59,0,-999,0,0.00
2013-12-4,39.0,34.4,28.0,39.0,33.8,20.0,100,98,74,29.72,29.36,0,-999,0,0.00
2013-12-5,27.0,15.1,9.0,20.0,3.2,-4.0,75,59,50,30.26,29.63,0,-999,0,0.00
2013-12-6,7.0,5.8,5.0,-6.0,-7.2,-8.0,55,55,55,30.53,30.47,0,-999,0,0.00
2013-12-7,11.0,5.8,0.0,-2.0,-7.2,-12.0,55,55,55,30.65,30.56,0,-999,0,0.00
2013-12-8,18.0,12.9,8.0,7.0,2.3,-5.0,70,62,55,30.56,29.96,0,-999,0,0.00
2013-12-9,13.0,5.5,-5.0,5.0,-2.2,-12.0,70,70,70,30.14,29.93,0,-999,0,0.00
2013-12-10,13.0,7.9,-1.0,8.0,1.5,-8.0,81,76,70,30.17,29.78,0,-999,0,0.00
2013-12-11,15.0,1.8,-8.0,12.0,-2.3,-12.0,89,82,81,30.50,30.17,0,-999,0,0.00
2013-12-12,18.0,7.6,0.0,10.0,2.3,-4.0,82,78,69,30.41,30.14,0,-999,0,0.00
2013-12-13,27.0,20.1,16.0,12.0,8.5,3.0,75,60,49,30.20,30.08,0,-999,0,0.00
2013-12-14,27.0,17.5,12.0,14.0,8.3,3.0,80,67,54,30.20,29.99,0,-999,0,0.00
2013-12-15,12.0,6.5,1.0,7.0,1.5,-4.0,80,80,80,30.14,29.99,0,-999,0,0.00
2013-12-16,17.0,9.4,-1.0,8.0,2.1,-6.0,80,73,56,30.14,29.93,0,-999,0,0.00
2013-12-17,35.0,24.0,12.0,24.0,14.7,2.0,84,68,51,30.05,29.81,0,-999,0,0.00
2013-12-18,37.0,23.5,6.0,23.0,15.1,-4.0,83,70,51,30.02,29.63,0,-999,0,0.00
2013-12-19,27.0,24.4,19.0,20.0,16.7,14.0,89,73,59,29.96,29.72,0,-999,0,0.00
2013-12-20,24.0,20.7,19.0,18.0,15.6,14.0,82,81,79,29.93,29.87,0,-999,0,0.00
2013-12-23,3.0,-1.1,-7.0,-3.0,-7.1,-13.0,75,75,75,30.47,30.41,0,-999,0,0.00
2013-12-24,13.0,0.2,-16.0,7.0,-5.8,-22.0,75,75,75,30.50,30.23,0,-999,0,0.00
2013-12-25,26.0,16.9,10.0,18.0,9.6,4.0,79,72,61,30.23,30.05,0,-999,0,0.00
2013-12-26,31.0,19.9,11.0,19.0,11.4,3.0,78,69,55,30.20,30.11,0,-999,0,0.00
2013-12-27,37.0,23.3,8.0,31.0,17.3,3.0,92,78,64,30.20,29.96,0,-999,0,0.00
2013-12-28,41.0,32.9,22.0,33.0,28.5,21.0,99,84,70,30.02,29.72,0,-999,0,0.00
2013-12-29,35.0,11.7,-12.0,31.0,1.0,-25.0,89,62,49,30.29,29.78,0,-999,0,0.00
2013-12-30,-12.0,-13.6,-14.0,-25.0,-25.8,-26.0,52,52,52,30.32,30.29,0,-999,0,0.00